Weather History for PASO - August, 2013

Change the Weather History Date:

Saturday, August 31, 2013

  Actual Average (PAHO) Record (PAHO)
Temperature  
Mean Temperature 53 °F -  
Max Temperature 62 °F 58 °F 69 °F (1942)
Min Temperature 46 °F 43 °F 32 °F (1960)
Degree Days  
Heating Degree Days 12    
Growing Degree Days 3 (Base 50)    
Moisture  
Dew Point 50 °F    
Average Humidity 87    
Maximum Humidity 97    
Minimum Humidity 69    
Precipitation  
Precipitation 0.09 in - - ()
Sea Level Pressure  
Sea Level Pressure 29.90 in    
Wind  
Wind Speed 2 mph (South)    
Max Wind Speed 8 mph    
Max Gust Speed 16 mph    
Visibility 10 miles    
Events Rain    
Averages and records for this station are not official NWS values.
T = Trace of Precipitation, MM = Missing Value Source: NWS Daily Summary

Daily Weather History Graph

Daily Weather History Graph

Search for Another Location

Airport or City:

Trip Planner

Search our weather history database for the weather conditions in past years. The results will help you decide how hot, cold, wet, or windy it might be!

Date:

Astronomy

Aug. 31, 2013 Rise Set
Actual Time 7:02 AM AKDT 9:10 PM AKDT
Civil Twilight 6:17 AM AKDT 9:54 PM AKDT
Nautical Twilight 5:20 AM AKDT 10:51 PM AKDT
Astronomical Twilight 4:06 AM AKDT 12:02 AM AKDT
Moon 1:56 AM AKDT (8/31) 6:52 PM AKDT (8/31)
Length of Visible Light 15h 36m
Length of Day
14h 08m
Waning Crescent, 20% of the Moon is Illuminated
Aug 31
Waning Crescent
Sep 5
New
Sep 12
First Quarter
Sep 19
Full
Sep 26
Last Quarter

Hourly Weather History & Observations

Time (AKDT) Temp. Dew Point Humidity Pressure Visibility Wind Dir Wind Speed Gust Speed Precip Events Conditions
12:53 AM 50.0 °F 48.0 °F 93% 29.97 in 10.0 mi Calm Calm - N/A   Clear
1:53 AM 48.9 °F 48.0 °F 97% 29.96 in 10.0 mi South 3.5 mph - N/A   Clear
2:53 AM 48.9 °F 46.9 °F 93% 29.96 in 10.0 mi Calm Calm - N/A   Clear
3:53 AM 48.0 °F 46.0 °F 93% 29.95 in 10.0 mi Calm Calm - N/A   Clear
4:53 AM 46.9 °F 45.0 °F 93% 29.94 in 10.0 mi Calm Calm - N/A   Clear
5:53 AM 48.9 °F 46.9 °F 93% 29.93 in 10.0 mi SSW 3.5 mph - N/A   Overcast
6:53 AM 51.1 °F 48.0 °F 89% 29.92 in 10.0 mi South 3.5 mph - N/A   Overcast
7:53 AM 52.0 °F 50.0 °F 93% 29.91 in 10.0 mi Calm Calm - 0.01 in   Overcast
8:53 AM 55.0 °F 51.1 °F 86% 29.91 in 10.0 mi South 8.1 mph - 0.00 in Rain Light Rain
9:53 AM 54.0 °F 52.0 °F 93% 29.91 in 8.0 mi South 6.9 mph - 0.06 in Rain Light Rain
10:53 AM 55.0 °F 50.0 °F 83% 29.91 in 10.0 mi SSE 8.1 mph 16.1 mph 0.01 in Rain Light Rain
11:53 AM 55.0 °F 53.1 °F 93% 29.90 in 10.0 mi North 6.9 mph - 0.01 in Rain Light Rain
12:53 PM 55.9 °F 53.1 °F 90% 29.90 in 10.0 mi Calm Calm - 0.00 in   Overcast
1:53 PM 57.9 °F 52.0 °F 81% 29.89 in 10.0 mi Calm Calm - N/A   Overcast
2:53 PM 60.1 °F 54.0 °F 80% 29.88 in 10.0 mi Calm Calm - N/A   Overcast
3:53 PM 57.0 °F 51.1 °F 81% 29.89 in 10.0 mi Variable 4.6 mph - N/A   Overcast
4:53 PM 57.9 °F 52.0 °F 81% 29.89 in 10.0 mi NNE 3.5 mph - N/A   Mostly Cloudy
5:53 PM 59.0 °F 52.0 °F 78% 29.87 in 10.0 mi Calm Calm - N/A   Overcast
6:53 PM 57.9 °F 51.1 °F 78% 29.86 in 10.0 mi Calm Calm - N/A   Overcast
7:53 PM 57.0 °F 46.9 °F 69% 29.86 in 10.0 mi Variable 4.6 mph - N/A   Overcast
8:53 PM 54.0 °F 48.0 °F 80% 29.86 in 10.0 mi Calm Calm - N/A   Overcast
9:53 PM 52.0 °F 48.0 °F 86% 29.87 in 10.0 mi Calm Calm - N/A   Overcast
10:53 PM 51.1 °F 48.0 °F 89% 29.87 in 10.0 mi Calm Calm - N/A   Overcast
11:53 PM 51.1 °F 48.0 °F 89% 29.87 in 10.0 mi Calm Calm - N/A   Overcast